Location: Baggettsville
(36.4767°N, 86.7303°W)
Time: 21:07:35
(UTC+00:00)

ISS - Pass Details

Date: 07 October 2021
Orbit: 417 x 423 km, 51.6° (Epoch: 25 October)

Event Time Altitude Azimuth Distance (km) Brightness Sun altitude
Rises 01:24:30 0° 293° (WNW) 2,361 1.4 -25.2°
Reaches altitude 10° 01:27:13 10° 269° (W) 1,495 0.0 -25.7°
Maximum altitude 01:29:15 15° 232° (SW) 1,211 -1.0 -26.1°
Enters shadow 01:29:23 15° 229° (SW) 1,212 -1.1 -26.2°
